Location: Amarillo Post Office Jordan Station
(35.1907°N, 101.9342°W)
Time: 12:30:22
(UTC+00:00)

Cosmos 1346 Rocket - Pass Details

Date: 24 January 2021
Orbit: 531 x 546 km, 81.2° (Epoch: 03 March)

Event Time Altitude Azimuth Distance (km) Brightness Sun altitude
Rises 12:39:26 0° 358° (N) 2,704 6.2 -14.9°
Reaches altitude 10° 12:41:40 10° 5° (N) 1,811 5.4 -14.5°
Maximum altitude 12:45:31 46° 79° (E) 732 3.9 -13.7°
Drops below altitude 10° 12:49:21 10° 154° (SSE) 1,806 6.0 -12.9°
Sets 12:51:34 0° 160° (SSE) 2,695 6.9 -12.5°
